Weather reports worldwide

Advertisment
Socoa, France (7600): temperature & dewpoint: 15.01.2021 05:00:00 - 21.01.2021 05:00:00 (CET)Socoa, France (7600): wind speed & gusts: 15.01.2021 05:00:00 - 21.01.2021 05:00:00 (CET)Socoa, France (7600): wind direction: 15.01.2021 05:00:00 - 21.01.2021 05:00:00 (CET)Socoa, France (7600): reduced air pressure: 15.01.2021 05:00:00 - 21.01.2021 05:00:00 (CET)Socoa, France (7600): visibility: 15.01.2021 05:00:00 - 21.01.2021 05:00:00 (CET)Socoa, France (7600): precipitation: 15.01.2021 05:00:00 - 21.01.2021 05:00:00 (CET)
Date & Time tt [°C] td [°C] ff [km/h] ff [kn] fx [km/h] fx [kn] dd ppp [hPa] vv [km] rr [mm]
21.01.2021 05:00:00 - - - - - - - - - -
21.01.2021 04:00:00 13,0 5,6 30 16 54 29 S 1005,3 22 0,0
21.01.2021 03:00:00 12,7 5,6 32 18 54 29 S 1004,8 - 0,0
21.01.2021 02:00:00 13,0 5,6 30 16 54 29 S 1004,6 - 0,0
21.01.2021 01:00:00 13,5 5,4 33 18 63 34 S 1004,1 - 0,0
21.01.2021 00:00:00 14,0 5,4 38 21 70 38 S 1003,6 - 0,0
20.01.2021 23:00:00 13,5 4,6 39 21 77 42 S 1002,9 - 0,0
20.01.2021 22:00:00 13,8 4,6 47 25 78 42 S 1002,1 24 0,0
20.01.2021 21:00:00 13,5 4,6 46 25 81 44 S 1001,3 - 0,0
20.01.2021 20:00:00 13,7 4,3 46 25 81 44 S 1001,1 - 0,0
20.01.2021 19:00:00 13,8 4,1 46 25 85 46 S 1000,8 - 0,0
20.01.2021 18:00:00 14,0 3,7 52 28 83 45 S 1000,2 - 0,0
20.01.2021 17:00:00 14,3 3,7 39 21 75 40 S 1000,4 - 0,0
20.01.2021 16:00:00 15,1 3,9 32 18 76 41 SSW 1000,4 26 0,0
20.01.2021 15:00:00 14,2 3,6 40 21 84 45 S 1000,7 - 0,0
20.01.2021 14:00:00 14,2 3,6 42 23 107 58 S 1001,8 - 0,0
20.01.2021 13:00:00 14,0 3,2 65 35 103 56 S 1002,2 24 0,0
20.01.2021 12:00:00 13,5 2,7 70 38 109 59 S 1002,9 - 0,0
20.01.2021 11:00:00 13,2 1,8 31 17 83 45 S 1004,2 - 0,0
20.01.2021 10:00:00 13,3 1,3 49 26 115 62 S 1005,0 26 0,0
20.01.2021 09:00:00 13,7 0,7 60 32 106 57 S 1005,2 - 0,0
20.01.2021 08:00:00 13,6 0,9 56 30 112 60 S 1004,6 - 0,0
20.01.2021 07:00:00 14,3 -0,2 57 31 108 59 S 1004,8 - 0,0
20.01.2021 06:00:00 14,4 -0,1 59 32 105 57 S 1005,7 - 0,0
20.01.2021 05:00:00 14,2 -0,7 41 22 82 45 S 1006,8 - 0,0
20.01.2021 04:00:00 14,3 -1,0 32 17 78 42 S 1007,8 24 0,0
20.01.2021 03:00:00 14,3 -0,6 21 11 62 34 S 1009,2 - 0,0
20.01.2021 02:00:00 14,6 -0,3 45 24 89 48 S 1009,0 - 0,0
20.01.2021 01:00:00 14,6 -0,3 59 32 88 47 S 1009,5 26 0,0
20.01.2021 00:00:00 13,8 1,4 37 20 75 41 S 1011,2 - 0,0
19.01.2021 23:00:00 13,8 1,7 43 23 79 43 S 1011,6 - 0,0
19.01.2021 22:00:00 13,9 2,1 49 27 92 50 S 1012,0 26 0,0
19.01.2021 21:00:00 13,7 2,3 46 25 72 39 S 1013,2 - 0,0
19.01.2021 20:00:00 13,5 2,4 37 20 59 32 S 1014,6 - 0,0
19.01.2021 19:00:00 13,6 2,8 35 19 56 30 S 1015,2 28 0,0
19.01.2021 18:00:00 13,8 2,7 16 8 54 29 SSE 1016,0 - 0,0
19.01.2021 17:00:00 15,4 2,5 37 20 56 30 S 1016,0 - 0,0
19.01.2021 16:00:00 16,3 3,0 19 10 45 24 S 1017,0 28 0,0
19.01.2021 15:00:00 16,8 3,1 23 13 47 26 S 1017,2 - 0,0
19.01.2021 14:00:00 16,4 3,4 28 15 58 31 S 1017,6 - 0,0
19.01.2021 13:00:00 15,7 3,5 29 16 54 29 S 1019,0 26 0,0
19.01.2021 12:00:00 14,7 4,4 32 18 48 26 S 1020,2 - 0,0
19.01.2021 11:00:00 13,5 4,4 36 19 56 30 S 1020,5 - 0,0
19.01.2021 10:00:00 12,4 4,1 22 12 42 23 S 1020,9 - 0,0
19.01.2021 09:00:00 10,8 4,0 25 13 44 24 S 1021,1 - 0,0
19.01.2021 08:00:00 10,8 4,0 27 15 46 25 S 1021,2 - 0,0
19.01.2021 07:00:00 10,4 4,1 28 15 45 24 S 1021,5 20 0,0
19.01.2021 06:00:00 10,2 4,3 28 15 43 23 S 1021,7 - 0,0
19.01.2021 05:00:00 9,2 4,6 26 14 37 20 S 1022,2 - 0,0
19.01.2021 04:00:00 5,0 4,1 12 6 27 15 S 1023,3 15 0,0
19.01.2021 03:00:00 3,7 3,1 13 7 21 11 S 1023,7 - 0,2
19.01.2021 02:00:00 3,3 2,7 3 1 11 6 SSE 1024,3 - 0,0
19.01.2021 01:00:00 3,4 2,7 8 5 13 7 S 1025,2 - 0,0
19.01.2021 00:00:00 3,8 3,1 10 5 13 7 S 1025,7 - 0,0
18.01.2021 23:00:00 4,1 3,2 8 4 10 5 ESE 1026,1 - 0,0
18.01.2021 22:00:00 4,9 4,0 5 3 11 6 S 1026,5 20 0,0
18.01.2021 21:00:00 5,7 4,5 7 4 17 9 SSE 1026,6 - 0,0
18.01.2021 20:00:00 7,1 5,6 11 6 18 10 SE 1027,1 - 0,0
18.01.2021 19:00:00 8,2 6,2 8 5 17 9 ESE 1027,5 - 0,0
18.01.2021 18:00:00 9,6 5,8 11 6 16 9 E 1027,7 - 0,0
18.01.2021 17:00:00 10,8 6,5 8 5 16 9 NE 1027,4 - 0,0
18.01.2021 16:00:00 10,9 6,4 9 5 15 8 NE 1027,8 20 0,0
18.01.2021 15:00:00 10,6 6,2 9 5 14 8 NNE 1028,3 - 0,0
18.01.2021 14:00:00 10,8 5,5 8 4 17 9 NNE 1028,7 - 0,0
18.01.2021 13:00:00 10,8 6,9 9 5 14 8 NE 1029,5 - 0,0
18.01.2021 12:00:00 11,1 8,1 6 3 11 6 NNW 1030,2 - 0,0
18.01.2021 11:00:00 9,5 7,8 3 2 6 4 WNW 1030,3 - 0,0
18.01.2021 10:00:00 7,4 7,0 8 4 13 7 S 1030,0 15 0,0
18.01.2021 09:00:00 6,3 5,6 8 5 11 6 S 1029,8 - 0,0
18.01.2021 08:00:00 6,5 5,8 5 3 17 9 ESE 1030,2 - 0,0
18.01.2021 07:00:00 6,6 5,9 10 5 16 9 SE 1030,3 - 0,0
18.01.2021 06:00:00 6,6 6,0 10 5 14 7 ESE 1030,1 - 0,0
18.01.2021 05:00:00 6,6 6,0 6 4 13 7 SE 1030,0 - 0,0
18.01.2021 04:00:00 6,1 5,5 8 4 12 6 ESE 1030,3 15 0,0
18.01.2021 03:00:00 5,8 5,2 6 3 8 4 S 1030,3 - 0,0
18.01.2021 02:00:00 5,7 5,1 5 3 9 5 SSE 1030,5 - 0,0
18.01.2021 01:00:00 6,0 5,3 5 3 9 5 SSE 1031,0 - 0,0
18.01.2021 00:00:00 6,4 5,7 5 3 9 5 S 1031,1 - 0,0
17.01.2021 23:00:00 6,8 5,9 9 5 10 5 S 1031,2 - 0,0
17.01.2021 22:00:00 7,4 6,5 9 5 14 8 SW 1031,1 15 0,0
17.01.2021 21:00:00 7,4 6,3 11 6 16 8 S 1031,0 - 0,0
17.01.2021 20:00:00 7,6 6,7 11 6 18 10 S 1031,1 - 0,0
17.01.2021 19:00:00 7,7 6,8 12 6 18 10 S 1031,0 10 0,2
17.01.2021 18:00:00 8,1 7,2 9 5 12 6 SSW 1030,4 - 0,2
17.01.2021 17:00:00 8,3 7,4 6 3 22 12 N 1030,2 - 0,8
17.01.2021 16:00:00 9,0 8,1 12 7 24 13 NNE 1029,8 8 0,7
17.01.2021 15:00:00 9,4 8,6 18 10 36 19 NNE 1029,5 - 0,2
17.01.2021 14:00:00 9,9 9,0 27 14 52 28 NNE 1029,6 - 1,0
17.01.2021 13:00:00 10,8 9,9 25 13 42 23 WSW 1029,5 - 0,6
17.01.2021 12:00:00 10,4 9,5 26 14 40 21 SW 1029,6 - 2,0
17.01.2021 11:00:00 10,3 8,7 25 14 39 21 SW 1029,4 - 1,8
17.01.2021 10:00:00 11,0 7,7 22 12 39 21 SW 1029,0 - 0,0
17.01.2021 09:00:00 11,1 6,8 24 13 41 22 SW 1028,5 - 0,0
17.01.2021 08:00:00 11,0 6,9 27 15 47 25 WSW 1028,4 - 0,0
17.01.2021 07:00:00 11,2 6,3 27 15 41 22 SW 1028,2 - 0,0
17.01.2021 06:00:00 11,3 5,4 25 14 46 25 SW 1028,2 - 0,0
17.01.2021 05:00:00 11,3 5,4 23 13 44 24 SW 1028,4 - 0,0
17.01.2021 04:00:00 10,8 6,0 23 12 35 19 SW 1028,4 15 0,0
17.01.2021 03:00:00 10,7 4,6 20 11 37 20 WSW 1029,2 - 0,0
17.01.2021 02:00:00 10,9 3,2 21 11 29 16 W 1029,2 - 0,0
17.01.2021 01:00:00 10,1 2,0 13 7 31 17 W 1029,4 - 0,0
17.01.2021 00:00:00 10,0 0,3 21 11 32 18 WSW 1029,4 - 0,0
16.01.2021 23:00:00 8,0 3,6 13 7 25 13 WSW 1029,3 - 0,0
16.01.2021 22:00:00 8,4 4,4 18 10 27 14 SW 1029,4 - 0,0
16.01.2021 21:00:00 7,0 4,1 16 8 21 12 SW 1029,7 - 0,0
16.01.2021 20:00:00 6,5 4,5 12 6 14 8 SSW 1029,8 - 0,0
16.01.2021 19:00:00 7,4 4,7 2 1 4 2 SW 1029,7 20 0,0
16.01.2021 18:00:00 8,9 4,7 3 2 10 5 E 1029,1 - 0,0
16.01.2021 17:00:00 10,6 4,9 8 5 12 6 NNE 1028,9 - 0,0
16.01.2021 16:00:00 11,2 4,9 9 5 14 8 NNE 1028,9 20 0,0
16.01.2021 15:00:00 12,1 4,6 11 6 16 9 NNE 1029,2 - 0,0
16.01.2021 14:00:00 12,9 4,6 8 4 14 7 NE 1029,5 - 0,0
16.01.2021 13:00:00 12,9 4,8 8 4 15 8 E 1030,2 - 0,0
16.01.2021 12:00:00 11,6 5,2 9 5 16 8 ESE 1031,2 - 0,0
16.01.2021 11:00:00 8,7 5,3 6 4 16 8 S 1031,4 - 0,0
16.01.2021 10:00:00 4,8 3,5 14 8 18 10 S 1031,2 - 0,0
16.01.2021 09:00:00 3,0 2,1 16 9 18 10 S 1031,2 - 0,0
16.01.2021 08:00:00 3,1 2,1 13 7 16 8 S 1031,0 - 0,0
16.01.2021 07:00:00 3,8 2,9 11 6 15 8 S 1030,7 15 0,2
16.01.2021 06:00:00 4,1 3,1 6 3 11 6 S 1030,8 - 0,0
16.01.2021 05:00:00 5,2 3,8 10 5 12 7 S 1030,7 - 0,0
16.01.2021 04:00:00 6,2 4,5 5 3 12 6 SE 1031,0 - 0,0
16.01.2021 03:00:00 6,4 4,7 6 4 12 7 SE 1030,8 - 0,0
16.01.2021 02:00:00 6,6 4,8 7 4 19 10 SE 1030,9 - 0,0
16.01.2021 01:00:00 7,0 5,5 13 7 21 11 ESE 1031,1 15 0,0
16.01.2021 00:00:00 7,0 5,8 7 4 15 8 E 1031,5 - 0,0
15.01.2021 23:00:00 7,8 6,4 9 5 16 9 E 1031,4 - 0,0
15.01.2021 22:00:00 8,7 6,8 12 7 37 20 ENE 1031,0 15 0,0
15.01.2021 21:00:00 9,6 7,7 29 16 42 23 N 1030,8 - 0,0
15.01.2021 20:00:00 7,7 6,2 6 3 16 9 SW 1030,9 - 0,0
15.01.2021 19:00:00 8,8 6,8 4 2 14 8 WNW 1030,6 - 0,0
15.01.2021 18:00:00 9,1 7,0 10 5 46 25 NNE 1030,5 - 0,0
15.01.2021 17:00:00 9,8 7,6 15 8 37 20 NW 1030,3 - 0,8
15.01.2021 16:00:00 10,8 6,9 20 11 34 18 NW 1029,9 - 0,0
15.01.2021 15:00:00 10,7 7,4 22 12 32 17 NNW 1030,1 - 0,0
15.01.2021 14:00:00 9,7 7,6 25 13 39 21 NNW 1030,6 - 0,6
15.01.2021 13:00:00 10,9 6,4 19 10 64 35 N 1030,9 15 0,0
15.01.2021 12:00:00 11,3 7,4 24 13 41 22 W 1031,2 - 0,0
15.01.2021 11:00:00 10,9 6,8 29 16 57 31 NNW 1031,1 - 0,0
15.01.2021 10:00:00 11,2 6,5 36 19 49 26 NW 1030,7 15 0,0
15.01.2021 09:00:00 10,9 7,2 31 17 46 25 NNW 1030,0 - 0,0
15.01.2021 08:00:00 11,4 6,7 35 19 42 23 NW 1029,7 - 0,0
15.01.2021 07:00:00 11,0 7,5 35 19 46 25 NW 1029,4 15 0,0
15.01.2021 06:00:00 11,1 5,4 43 23 63 34 NW 1029,4 - 0,0
15.01.2021 05:00:00 11,1 7,0 36 20 54 29 NW 1029,3 - 0,0

tt = temperature
td = dewpoint
ff = wind speed
fx = gusts
dd = wind direction
ppp = reduced air pressure
vv = visibility
rr = precipitation

Next stations